Regional Weather Roundup
Issued by NWS State College, PA

Home | Current Version | Previous Version | Text Only | Print | Product List | Glossary On
Versions: 1 2 3 4 5 6 7 8 9 10 11 12 13 14 15 16 17 18 19 20 21 22 23 24 25 26 27 28 29 30 31 32 33 34 35 36 37 38 39 40 41 42 43 44 45 46 47 48 49 50
000
ASUS41 KCTP 241310
RWRCTP

REGIONAL WEATHER ROUNDUP
NATIONAL WEATHER SERVICE STATE COLLEGE PA
800 AM EST FRI FEB 24 2017

Note: "fair" indicates few or no clouds below 12,000 feet with no
significant weather and/or obstructions to visibility.

* = STATION THAT DOES NOT REPORT PRECIPITATION /E.G. RAIN...SNOW...ETC/
    THUNDER OR FOG.

PAZ002>004-007>009-013>016-020>023-029>032-241400-
WESTERN PENNSYLVANIA

CITY           SKY/WX    TMP DP  RH WIND       PRES   REMARKS
ERIE           CLOUDY    40  38  93 N5        29.74R FOG
MEADVILLE      CLEAR     56  50  80 S8        29.76S
FRANKLIN*      CLOUDY    55  48  76 S12       29.80R
NEW CASTLE     FAIR      56  52  86 VRB5      29.79R
BEAVER COUNTY  CLOUDY    59  52  77 S12       29.79
BUTLER*        CLOUDY    57  50  77 S7        29.81S
PITTSBURGH INT CLOUDY    60  51  72 S10       29.80R
PITTSBURGH     CLOUDY    59  48  67 S9        29.81R
INDIANA*       MOSUNNY   57  52  82 CALM      29.85S
LATROBE        PTSUNNY   59  50  72 SW7       29.84R
WASHINGTON CO* CLOUDY    57  50  77 S6        29.84R
$$

PAZ004>006-010>012-017>019-024>028-033>037-041-042-045-046-049>053-241400-
CENTRAL PENNSYLVANIA

CITY           SKY/WX    TMP DP  RH WIND       PRES   REMARKS
BRADFORD       MOSUNNY   55  52  89 S9        29.81S
DUBOIS         PTSUNNY   57  49  74 VRB3      29.82S
CLEARFIELD       N/A    N/A N/A N/A MISG      29.85R
JOHNSTOWN      SUNNY     53  49  86 SW5       29.86R
ALTOONA        CLOUDY    59  52  77 CALM      29.87R
STATE COLLEGE  CLOUDY    50  50 100 CALM      29.86R
WILLIAMSPORT   PTSUNNY   49  47  93 CALM      29.86R
SELINSGROVE    CLOUDY    51  50  96 CALM      29.88R
FT INDIANTOWN  MOSUNNY   49  49 100 CALM      29.91R
CAPITAL CITY   SUNNY     58  50  75 E7        29.90R
HARRISBURG     MOSUNNY   55  51  86 E3        29.90R
YORK           SUNNY     57  52  83 VRB5      29.90R
$$

PAZ038>040-043-044-047-048-054-055-060>062-067>071-241400-
EASTERN PENNSYLVANIA

CITY           SKY/WX    TMP DP  RH WIND       PRES   REMARKS
SCRANTON       MOSUNNY   57  52  83 S5        29.87R
MOUNT POCONO   SUNNY     52  50  93 S3        29.91R
ALLENTOWN      SUNNY     51  48  89 N3        29.92R
QUAKERTOWN*    SUNNY     55  54  94 CALM      29.94R
READING        MOSUNNY   59  53  80 CALM      29.91R
LANCASTER      SUNNY     53  52  96 E6        29.91R
COATESVILLE    SUNNY     54  54 100 S5        29.94R
POTTSTOWN      SUNNY     56  52  86 VRB3      29.94R
BLUE BELL      SUNNY     54  52  94 S5        29.93R
DOYLESTOWN     SUNNY     54  52  93 SW5       29.93R
WILLOW GROVE   NOT AVBL
NORTH PHILA    SUNNY     56  52  86 S3        29.96R
PHILADELPHIA   MOSUNNY   56  51  84 S5        29.95R
$$



USA.gov is the U.S. government's official web portal to all federal, state and local government web resources and services.